FW9836 Weather Reports


Display with metric or nautical units.
time (UTC)temp
F
wind
direction
speed
MPH
gust
MPH
rain 1hr
in
rain 24hr
in
rain mn
in
humidity
%
barometer
mb
20260507144538 56 332 5.0 6.0 0.00 0.83 0.27 64 1007.2
20260507143536 55 315 1.0 2.0 0.00 0.83 0.27 67 1007.2
20260507141539 55 304 2.0 4.0 0.00 0.83 0.27 67 1007.5
20260507140538 55 327 1.0 2.0 0.00 0.83 0.27 69 1007.6
20260507135637 54 237 0.0 1.0 0.00 0.83 0.27 71 1007.6
20260507134635 53 252 1.0 5.0 0.00 0.83 0.27 73 1007.7
20260507133652 52 270 2.0 4.0 0.00 0.83 0.27 75 1008.0
20260507132738 51 262 0.0 3.0 0.00 0.83 0.27 75 1008.1
20260507131738 51 317 5.0 8.0 0.00 0.83 0.27 76 1007.8
20260507125739 50 339 1.0 2.0 0.00 0.83 0.27 80 1008.1
20260507123839 49 276 3.0 7.0 0.00 0.83 0.27 86 1007.6
20260507122936 48 67 0.0 0.0 0.00 0.83 0.27 86 1007.3
20260507121937 48 315 2.0 4.0 0.00 0.83 0.27 87 1007.2
20260507121836 48 302 1.0 4.0 0.00 0.83 0.27 87 1007.4
20260507120836 47 347 0.0 1.0 0.00 0.83 0.27 88 1007.4
20260507115837 47 315 0.0 1.0 0.00 0.83 0.27 87 1008.3
20260507114839 47 270 1.0 2.0 0.00 0.83 0.27 88 1007.7
20260507113836 46 199 1.0 4.0 0.00 0.83 0.27 89 1008.3
20260507111838 46 270 0.0 0.0 0.00 0.83 0.27 89 1008.6
20260507110937 46 32 0.0 0.0 0.00 0.83 0.27 91 1008.0
20260507104935 46 292 0.0 2.0 0.00 0.83 0.27 91 1008.1
20260507102938 46 270 1.0 3.0 0.00 0.83 0.27 91 1007.7
20260507101036 46 312 3.0 4.0 0.00 0.83 0.27 93 1007.0
20260507094136 46 304 2.0 4.0 0.00 0.83 0.27 93 1007.0
20260507093138 46 303 1.0 3.0 0.00 0.83 0.27 94 1007.2
20260507092235 47 189 0.0 1.0 0.00 0.83 0.27 94 1007.5
20260507091238 47 315 0.0 1.0 0.00 0.83 0.27 94 1007.4
20260507085237 48 260 2.0 5.0 0.00 0.83 0.27 95 1007.1
20260507083335 48 266 3.0 9.0 0.00 0.83 0.27 95 1006.5
20260507082337 48 284 2.0 6.0 0.01 0.83 0.27 94 1006.6
20260507080337 48 319 2.0 6.0 0.01 0.83 0.27 94 1006.5
20260507075338 48 277 3.0 5.0 0.01 0.83 0.27 95 1006.3
20260507074338 49 306 2.0 6.0 0.01 0.83 0.27 95 1006.4
20260507073337 49 290 2.0 4.0 0.02 0.83 0.27 94 1006.3
20260507073235 49 267 1.0 3.0 0.02 0.83 0.27 95 1006.3
20260507071235 49 275 3.0 4.0 0.01 0.82 0.26 95 1006.0
20260507070237 49 315 1.0 2.0 0.11 0.82 0.26 95 1006.0
20260507065237 49 281 2.0 3.0 0.22 0.82 0.26 95 1006.0
20260507064237 49 270 2.0 3.0 0.25 0.82 0.26 94 1005.9
20260507063237 49 270 0.0 1.0 0.24 0.81 0.25 95 1005.7
20260507062236 49 270 0.0 1.0 0.24 0.81 0.25 95 1005.8
20260507061238 49 270 1.0 3.0 0.24 0.81 0.24 94 1005.9
20260507060239 49 278 5.0 9.0 0.14 0.71 0.14 95 1006.8
20260507055336 49 241 2.0 7.0 0.03 0.60 0.04 95 1006.4
20260507054337 48 233 2.0 4.0 0.00 0.57 0.01 94 1005.8
20260507052338 49 258 2.0 5.0 0.00 0.57 0.01 94 1006.0
20260507051339 49 224 4.0 7.0 0.01 0.57 0.01 95 1006.1
20260507050437 49 233 3.0 8.0 0.01 0.57 0.01 95 1005.9
20260507045438 49 227 2.0 5.0 0.01 0.57 0.01 95 1005.9
20260507045336 49 237 2.0 5.0 0.01 0.57 0.01 95 1005.9
20260507044338 49 231 7.0 15.0 0.01 0.57 0.01 95 1006.0
20260507043338 49 257 3.0 5.0 0.01 0.57 0.01 95 1006.0
20260507041435 49 243 5.0 10.0 0.01 0.56 0.00 95 1006.4
20260507040436 49 243 5.0 13.0 0.02 0.56 0.00 94 1006.5
20260507035517 49 222 5.0 11.0 0.03 0.56 0.56 93 1006.7
20260507034614 50 228 6.0 13.0 0.03 0.56 0.56 93 1006.8
20260507033616 50 216 3.0 6.0 0.05 0.56 0.56 94 1006.7
20260507032616 51 230 5.0 19.0 0.08 0.56 0.56 94 1006.7
20260507031616 51 221 5.0 12.0 0.08 0.55 0.55 94 1006.8
20260507030615 51 207 10.0 18.0 0.11 0.54 0.54 94 1007.0
20260507025616 51 225 7.0 16.0 0.13 0.53 0.53 94 1007.2
20260507024615 52 224 8.0 13.0 0.15 0.53 0.53 94 1007.3
20260507023616 52 225 10.0 14.0 0.16 0.51 0.51 94 1007.4
20260507022615 52 211 7.0 12.0 0.16 0.48 0.48 94 1007.6
20260507020614 52 219 9.0 23.0 0.14 0.43 0.43 92 1007.6
20260507015615 52 216 9.0 15.0 0.14 0.40 0.39 93 1008.0
20260507014615 52 208 7.0 10.0 0.14 0.38 0.37 93 1008.5
20260507013617 52 222 7.0 14.0 0.14 0.35 0.34 93 1008.6
20260507012615 53 231 6.0 14.0 0.14 0.32 0.32 93 1008.8
20260507012515 53 225 9.0 17.0 0.15 0.32 0.32 93 1008.9
20260507011515 53 210 5.0 10.0 0.17 0.30 0.30 93 1009.0
20260507005516 52 220 5.0 10.0 0.19 0.26 0.26 93 1009.1
20260507004516 52 215 8.0 14.0 0.16 0.23 0.23 93 1009.5
20260507003614 52 206 9.0 15.0 0.15 0.21 0.21 93 1009.5
20260507002616 52 230 8.0 16.0 0.13 0.18 0.17 92 1009.7
20260507000718 52 217 9.0 16.0 0.06 0.11 0.11 92 1009.8
20260506235716 52 222 7.0 15.0 0.04 0.08 0.08 92 1010.2
20260506234717 52 233 6.0 12.0 0.03 0.07 0.07 91 1010.1
20260506233715 52 243 4.0 10.0 0.03 0.06 0.06 91 1010.0
20260506232715 52 225 5.0 11.0 0.02 0.05 0.05 92 1010.0
20260506224731 51 213 6.0 11.0 0.04 0.04 0.04 92 1010.7
20260506223715 51 221 6.0 10.0 0.03 0.03 0.03 92 1010.4
20260506222714 51 218 8.0 14.0 0.03 0.03 0.02 91 1010.5
20260506221716 51 239 5.0 13.0 0.02 0.02 0.02 91 1010.9
20260506221631 51 225 8.0 19.0 0.02 0.02 0.02 91 1010.9
20260506220616 51 228 8.0 16.0 0.01 0.01 0.01 91 1011.3
20260506215617 51 221 6.0 12.0 0.01 0.01 0.01 89 1011.4
20260506214615 51 204 5.0 8.0 0.00 0.00 0.00 90 1011.3
20260506212615 51 235 5.0 8.0 0.00 0.00 0.00 88 1011.1
20260506211615 51 204 5.0 13.0 0.00 0.00 0.00 88 1011.4
20260506210714 51 227 7.0 11.0 0.00 0.00 0.00 88 1011.7
20260506205716 51 242 2.0 6.0 0.00 0.00 0.00 86 1011.6
20260506204714 52 220 5.0 14.0 0.00 0.00 0.00 86 1011.5
20260506203716 52 244 2.0 7.0 0.00 0.00 0.00 85 1011.7
20260506202714 52 223 4.0 10.0 0.00 0.00 0.00 85 1010.8
20260506201715 53 227 8.0 15.0 0.00 0.00 0.00 85 1011.0
20260506195814 54 218 10.0 17.0 0.00 0.00 0.00 84 1011.1
20260506193815 54 222 8.0 18.0 0.00 0.00 0.00 83 1011.5
20260506192815 54 213 11.0 20.0 0.00 0.00 0.00 84 1011.6
20260506191815 54 237 4.0 9.0 0.00 0.00 0.00 84 1011.7
20260506190815 54 232 5.0 11.0 0.00 0.00 0.00 84 1011.9
20260506185817 53 211 5.0 13.0 0.00 0.00 0.00 85 1011.8
20260506184817 53 220 5.0 14.0 0.00 0.00 0.00 85 1011.9
20260506183814 53 225 7.0 15.0 0.00 0.00 0.00 84 1012.0
20260506182815 53 214 7.0 17.0 0.00 0.00 0.00 85 1012.1
20260506181915 53 234 7.0 13.0 0.00 0.00 0.00 85 1012.2
20260506180915 53 212 6.0 12.0 0.00 0.00 0.00 85 1012.3
20260506175917 53 262 2.0 6.0 0.00 0.00 0.00 86 1012.3
20260506173914 52 219 5.0 10.0 0.00 0.00 0.00 85 1012.4
20260506172915 52 232 5.0 11.0 0.00 0.00 0.00 85 1012.6
20260506171917 53 239 3.0 14.0 0.00 0.00 0.00 84 1012.8
20260506171015 53 227 6.0 18.0 0.00 0.00 0.00 84 1012.8
20260506170014 54 225 7.0 14.0 0.00 0.00 0.00 83 1012.8
20260506165015 54 242 6.0 14.0 0.00 0.00 0.00 83 1013.0
20260506164015 54 232 7.0 12.0 0.00 0.00 0.00 84 1013.1
20260506163114 54 232 3.0 9.0 0.00 0.00 0.00 84 1013.2
20260506162114 54 243 5.0 11.0 0.00 0.00 0.00 84 1013.4
20260506161115 54 218 4.0 10.0 0.00 0.00 0.00 84 1013.5
20260506160213 54 255 4.0 10.0 0.00 0.00 0.00 83 1013.3
20260506155215 54 235 3.0 8.0 0.00 0.00 0.00 84 1013.3
20260506154215 54 228 4.0 11.0 0.00 0.00 0.00 84 1013.1
20260506153315 54 199 3.0 9.0 0.00 0.00 0.00 86 1013.1
20260506152314 53 218 5.0 15.0 0.00 0.00 0.00 87 1013.2
20260506151315 53 218 7.0 12.0 0.00 0.00 0.00 87 1013.4
20260506145514 52 217 3.0 7.0 0.00 0.00 0.00 87 1013.7